Wind_Speed
43 44 44 45 46 46 47 48 48 49 51 52 53 54 56 58 59 59 60 61 62 63 64 65 66 66 67 68 69 71 73 75 77 77 77 77 78 79 81 82 83 85 87 88 89 89 88 88 86 85 83 81 80 80 79 80 80 81 81 79 77 75 73 72 72 71 71 74 76 77 78 78 79 79 79 78 76 74 72 71 69 67 66 65 64
46 47 48 49 49 49 49 50 51 52 53 54 56 57 59 61 62 62 63 63 64 65 66 67 67 68 69 70 71 73 75 77 77 77 76 77 78 80 81 82 84 86 88 88 88 88 87 85 84 82 81 79 79 79 79 80 80 80 78 76 73 72 72 72 73 73 72 74 76 77 77 78 78 77 77 76 73 70 68 66 65 64 63 63 63
48 48 49 50 50 51 52 53 53 54 55 57 58 59 61 63 64 64 64 65 65 66 67 68 68 69 70 71 73 75 77 78 77 77 76 77 79 80 82 84 85 87 88 88 87 86 85 83 81 80 79 78 79 79 80 80 79 77 74 72 71 71 72 73 74 74 74 74 75 76 76 76 76 75 74 73 70 68 65 64 63 62 62 62 62
47 49 50 51 52 53 55 55 56 58 59 60 61 62 64 65 65 65 66 66 67 68 68 68 69 70 71 72 75 77 77 77 77 77 77 78 79 81 83 84 86 86 87 87 86 84 82 80 79 78 78 79 79 80 80 79 77 74 71 70 70 71 72 73 74 75 75 74 75 75 75 74 73 72 71 69 67 66 65 63 62 61 61 62 61
48 49 51 52 54 55 57 58 59 61 62 63 63 64 65 65 66 66 67 67 68 68 68 69 70 71 72 74 76 77 77 76 76 77 78 79 80 81 83 85 85 86 85 85 83 81 80 79 78 78 79 79 80 80 79 76 73 70 69 69 70 71 72 73 74 74 75 74 74 73 73 72 70 69 69 68 66 65 64 63 63 62 61 61 61
50 52 54 55 56 57 59 60 62 63 63 64 64 65 66 66 66 67 67 68 68 68 69 70 71 72 73 75 76 76 76 76 76 78 79 80 81 82 84 84 85 84 84 82 81 79 78 78 78 79 79 80 80 78 76 73 70 69 69 70 71 72 73 73 74 74 74 73 73 72 71 69 68 66 67 67 67 66 65 63 63 63 63 62 61
52 54 55 56 58 59 60 61 62 63 63 63 64 64 65 66 66 66 67 68 68 69 70 71 72 73 74 75 75 75 76 77 77 79 80 81 82 83 84 84 84 83 82 80 79 78 78 78 79 79 80 80 78 76 72 69 68 68 69 70 71 72 73 73 73 73 73 72 72 71 70 68 66 65 66 66 66 66 67 65 63 63 64 62 61
53 54 56 57 59 60 60 61 61 61 61 61 61 62 63 64 65 66 67 68 69 70 71 72 73 74 74 74 74 75 76 78 79 80 80 81 82 83 83 83 82 81 80 78 77 77 78 78 79 80 80 78 75 72 69 68 68 69 70 71 71 72 72 73 73 73 72 71 70 70 68 67 66 65 65 66 66 65 66 66 64 63 63 62 61
54 55 56 56 57 59 61 61 61 61 60 60 60 61 62 63 65 66 68 69 70 71 72 73 73 73 73 73 74 76 78 79 80 80 81 81 82 82 82 81 81 80 78 78 77 78 78 79 80 80 79 76 72 69 68 67 68 69 70 71 71 72 72 72 72 72 71 70 69 69 68 66 66 66 66 66 67 65 65 65 64 63 62 60 59
55 55 55 55 57 59 61 62 62 63 62 61 61 61 63 64 66 67 69 70 72 72 73 72 72 71 72 74 75 77 79 80 80 80 81 81 80 81 81 80 79 79 78 78 78 78 79 80 80 79 76 72 69 67 67 68 68 69 70 70 71 71 71 71 71 71 69 69 69 69 67 66 67 68 68 67 67 67 66 65 64 62 61 59 57
55 54 54 56 57 58 60 62 64 65 65 63 63 64 65 66 68 69 71 72 72 72 71 71 71 72 73 75 76 78 79 80 80 80 80 79 80 80 79 79 78 78 78 79 79 79 80 80 79 77 73 69 67 67 67 68 69 70 70 70 70 70 70 70 69 69 68 68 68 68 68 67 67 69 69 69 68 68 67 66 65 63 63 61 57
56 55 56 57 56 56 58 61 64 66 66 66 66 66 67 69 70 72 72 72 71 70 70 70 71 73 74 76 77 78 79 79 79 79 78 79 79 79 78 78 78 79 79 79 80 80 80 79 77 74 70 67 66 67 67 68 69 69 70 70 70 69 69 68 68 68 68 68 68 68 68 68 68 70 70 70 70 69 67 66 66 65 64 61 57
57 58 58 56 54 56 60 63 65 66 68 68 67 68 69 71 71 71 70 69 69 69 70 70 72 73 75 76 78 79 79 79 79 78 78 78 78 78 78 78 78 79 80 80 80 80 79 78 75 71 68 66 66 67 67 68 68 68 68 68 68 68 67 67 67 67 67 67 67 67 68 68 69 70 71 71 71 69 67 65 65 65 63 59 55
58 58 56 54 54 58 63 65 66 67 67 68 68 69 70 70 69 68 67 67 68 69 70 72 73 75 76 77 78 79 79 78 78 78 78 77 77 77 77 78 79 79 80 79 79 79 78 75 71 68 66 66 67 67 67 67 67 67 67 67 66 66 65 66 66 66 66 67 67 67 68 69 70 70 70 72 72 70 68 66 66 65 61 55 51
57 55 53 54 58 62 65 67 67 67 68 69 70 70 69 67 65 66 66 68 69 70 71 73 74 75 76 77 78 78 78 78 78 77 77 77 76 76 78 79 79 80 79 79 78 77 75 71 68 66 66 66 67 67 67 67 66 65 65 65 65 64 64 65 65 65 65 66 67 67 68 69 70 70 70 71 72 71 69 68 69 66 60 53 47
54 53 55 58 62 65 67 68 68 69 71 71 70 67 65 64 65 66 67 68 69 71 72 74 74 75 77 78 78 77 77 77 77 77 77 76 76 77 78 79 80 79 78 77 77 75 71 68 66 66 66 66 67 67 66 66 65 64 64 64 64 64 64 65 65 65 65 66 66 67 68 69 70 70 70 71 71 70 68 68 69 66 59 51 44
53 54 58 63 66 68 69 70 71 72 72 69 66 64 63 64 65 66 67 69 70 71 72 74 75 76 77 77 77 76 77 77 77 76 76 77 77 78 78 79 79 78 77 76 75 72 68 66 65 65 66 66 66 66 66 65 64 64 64 64 64 63 63 64 64 64 65 65 66 67 67 69 70 69 69 70 71 70 68 68 68 65 57 50 43
55 58 63 67 70 71 72 72 72 71 68 65 63 63 64 65 66 67 68 69 70 71 72 74 75 76 76 76 76 76 76 76 76 76 77 77 78 78 78 79 78 77 75 74 72 68 66 65 65 65 66 66 66 66 65 65 64 64 64 64 64 63 63 63 63 63 64 64 64 66 67 68 69 68 67 69 70 69 68 68 68 64 56 50 44
59 64 68 71 72 73 72 71 69 66 64 63 63 63 64 65 66 67 68 69 70 72 73 74 75 75 75 75 75 75 76 76 77 77 77 78 79 78 78 77 76 75 74 71 68 65 64 65 66 66 66 66 66 66 65 65 64 64 63 63 63 63 63 63 62 62 62 62 63 64 66 67 68 66 66 68 68 67 67 67 68 63 55 49 46
64 67 70 72 73 72 70 68 65 64 63 63 63 64 65 66 67 68 69 70 71 72 73 74 74 74 74 74 74 75 75 76 77 78 78 79 79 78 76 75 74 73 71 68 65 63 63 64 65 65 65 65 66 65 65 65 64 63 63 63 63 63 63 63 62 62 61 61 62 63 64 66 66 65 65 66 67 66 66 66 67 63 55 49 46
67 70 71 72 71 69 67 65 63 63 63 63 64 65 66 66 67 69 70 71 72 72 73 73 73 73 74 74 74 75 76 77 78 79 79 79 78 76 74 72 71 70 68 64 62 62 63 64 64 64 65 65 65 64 64 64 64 63 63 63 64 64 63 62 62 61 60 60 61 62 64 65 65 64 64 65 65 65 65 65 66 63 55 49 46
70 70 70 69 67 66 64 64 63 64 64 65 65 65 66 67 68 69 71 71 72 73 73 73 73 73 73 74 74 75 77 77 78 78 78 77 76 74 72 70 69 67 65 63 62 62 63 63 63 64 64 64 63 62 62 63 63 63 63 63 64 64 63 62 61 60 59 60 61 62 63 64 63 63 63 63 64 65 64 64 65 62 55 50 49
68 68 67 67 66 65 65 65 65 65 65 65 65 66 67 68 69 70 71 72 72 73 72 72 73 73 73 74 75 76 77 77 77 77 76 75 73 73 71 69 66 65 64 63 62 62 62 62 62 64 64 64 62 61 62 62 62 62 63 64 65 64 64 62 61 59 59 60 60 61 62 63 63 62 62 62 63 64 63 62 63 62 54 49 50
68 68 68 68 67 66 66 66 66 66 66 66 67 68 69 70 70 71 72 72 72 72 72 73 73 74 75 76 76 77 77 76 75 74 74 73 72 71 69 67 66 65 64 63 63 63 63 62 63 64 64 63 62 61 61 61 61 62 64 64 64 64 63 63 61 59 59 60 60 61 61 62 62 61 61 62 62 63 62 61 62 61 54 48 49
69 69 68 67 67 66 66 66 66 66 67 68 69 69 70 70 71 71 71 72 72 73 73 74 75 75 76 76 76 75 75 74 73 72 71 71 70 69 68 68 67 67 66 64 63 64 64 64 64 64 63 63 62 62 62 61 61 62 63 64 64 64 63 62 61 60 59 60 60 60 61 61 62 61 61 61 62 62 61 60 60 60 54 48 47
66 66 66 66 66 66 66 67 67 68 69 69 69 70 70 70 71 71 71 72 72 73 74 75 76 76 76 75 74 73 73 72 71 70 69 69 69 69 69 69 69 69 68 65 64 64 64 65 65 64 64 63 63 63 63 62 62 63 64 64 64 63 62 61 60 60 60 60 60 60 61 61 61 61 61 61 62 62 62 59 59 59 55 47 45
64 65 65 66 66 67 67 68 68 68 69 69 69 69 70 70 70 71 71 72 73 74 75 76 76 76 75 74 73 72 72 71 69 68 68 68 69 70 70 70 70 70 70 68 67 65 65 65 65 65 64 64 64 64 63 63 63 64 64 64 64 63 62 60 59 59 60 60 60 60 60 61 61 61 60 60 61 62 62 60 58 59 55 48 44
65 65 66 66 67 67 67 67 68 68 68 68 69 69 69 70 71 71 72 73 74 75 76 76 76 75 74 73 72 71 70 69 67 67 67 68 69 71 72 71 71 71 70 70 69 67 66 65 65 65 65 65 65 65 63 62 63 64 65 65 64 63 62 60 59 60 61 60 60 60 60 61 61 60 60 60 61 61 61 59 58 58 56 49 44
64 65 65 66 66 66 67 67 67 67 68 68 68 69 70 71 72 72 74 75 75 76 76 76 75 74 73 72 71 70 68 67 67 67 68 69 70 71 72 71 71 71 71 70 69 68 67 66 65 64 65 65 64 64 63 62 63 64 65 65 64 63 62 61 61 62 62 61 61 61 61 61 61 60 60 59 60 61 60 58 57 57 56 50 45
64 65 65 66 66 67 67 67 67 68 68 69 70 71 72 73 74 75 75 76 76 76 75 74 73 72 71 70 69 68 68 67 68 68 69 69 70 71 71 71 71 71 70 69 69 68 67 65 64 63 64 64 63 63 63 63 64 65 65 65 64 63 64 63 63 63 63 62 62 62 61 61 61 60 60 59 59 59 59 57 56 56 56 51 45
64 65 66 66 67 67 68 68 69 70 71 72 72 73 74 75 75 75 75 75 75 74 73 72 71 70 69 69 68 69 68 69 69 70 70 70 71 71 71 71 70 69 68 68 68 67 66 64 63 63 64 64 64 63 63 64 66 66 65 64 64 64 65 66 65 65 63 63 63 62 62 62 62 61 60 59 59 58 57 56 55 55 55 52 46
65 66 66 67 68 69 69 70 71 72 73 74 74 75 75 74 74 74 73 73 72 71 70 70 70 70 70 70 70 70 70 71 72 72 72 72 71 71 71 70 69 68 67 67 67 66 65 64 64 64 64 65 64 64 65 67 67 67 65 64 64 66 67 67 67 65 64 64 64 63 63 63 62 61 60 59 58 57 56 54 53 53 54 52 46
66 67 68 68 69 70 71 72 72 73 73 73 73 72 72 71 70 70 70 70 69 69 69 70 70 71 72 72 73 73 73 74 73 73 73 72 71 69 68 68 67 67 67 67 65 65 64 65 65 65 66 66 66 66 68 69 68 67 65 65 65 67 68 68 67 66 64 64 64 64 64 64 62 61 61 59 58 57 54 53 53 52 53 51 46
67 68 69 70 70 71 71 71 71 70 70 70 69 69 69 68 68 68 68 69 69 70 71 72 73 74 74 75 75 75 75 74 73 72 70 69 69 68 67 66 66 66 66 66 65 65 66 67 67 67 67 68 68 68 69 69 68 67 65 65 66 67 68 68 67 65 65 65 66 65 65 64 63 62 61 59 58 56 54 53 52 52 52 50 46
68 69 69 69 69 68 68 68 67 67 67 67 67 67 67 68 68 69 69 70 71 71 72 73 74 75 75 75 75 75 74 73 72 70 69 67 66 66 66 66 65 65 66 66 67 67 67 68 68 69 69 69 70 70 70 70 69 67 65 65 66 67 67 67 66 66 66 66 66 66 65 64 63 62 61 59 57 55 53 52 52 51 52 50 45
67 67 66 66 66 65 65 65 65 65 65 65 66 66 67 68 69 69 70 71 71 72 72 73 74 75 75 75 74 73 72 71 70 69 68 67 66 66 66 66 66 66 67 67 68 69 69 70 70 71 71 71 71 71 71 70 68 67 66 66 66 66 66 66 66 66 66 66 66 66 65 64 63 62 60 58 55 54 52 51 51 51 52 50 44
64 64 64 64 64 64 64 64 64 64 64 65 65 67 68 69 70 71 71 72 72 73 73 74 74 74 75 74 73 72 71 70 68 67 67 67 66 66 66 66 66 67 68 68 69 71 72 72 73 73 73 73 73 72 71 70 68 67 66 66 67 66 66 66 66 67 67 66 66 66 66 65 64 62 60 57 54 53 52 51 50 51 51 50 44
61 61 61 61 61 61 62 62 63 64 65 66 68 69 70 71 72 72 73 73 74 74 74 74 74 73 73 72 72 71 69 69 68 67 67 67 67 67 67 67 68 69 69 70 72 73 73 74 74 75 74 74 73 72 70 69 68 67 67 67 67 67 67 67 67 67 67 67 66 66 66 66 64 62 59 56 54 52 51 51 50 50 51 49 44
59 59 59 59 60 61 62 63 65 67 69 70 71 72 73 73 73 73 73 73 74 74 74 73 73 72 71 71 70 69 69 68 68 67 67 67 68 69 69 70 70 71 72 73 74 75 75 75 75 75 75 74 73 71 69 68 68 68 68 69 69 68 68 68 69 69 68 68 67 67 67 66 64 61 58 55 53 52 50 50 50 50 50 48 43
57 58 59 60 62 63 65 67 69 71 72 73 74 74 75 75 74 73 73 73 73 73 73 72 72 71 71 71 70 70 69 69 69 69 69 69 70 71 71 72 73 74 74 75 76 77 77 76 76 75 75 73 72 71 69 69 69 69 70 70 70 70 70 69 69 69 68 68 67 67 67 65 63 60 58 55 53 51 50 50 50 50 50 46 41
59 60 62 63 65 67 69 71 72 73 74 75 76 76 76 75 75 74 73 72 72 72 72 72 71 71 71 71 71 71 71 70 71 71 71 71 72 72 73 74 75 76 76 77 77 77 77 77 76 75 74 73 72 71 70 70 70 70 70 71 71 70 70 69 69 68 68 68 67 67 66 65 63 61 58 55 53 51 51 51 50 50 49 45 39
62 63 65 66 68 70 72 74 75 76 76 76 77 77 76 76 75 74 74 73 73 73 72 72 72 72 72 72 72 72 72 72 72 73 73 73 74 74 75 76 77 77 77 77 77 77 77 76 75 75 74 72 71 70 69 69 70 70 71 71 70 70 70 70 69 69 69 69 68 68 67 66 64 61 58 56 53 52 51 51 50 50 48 42 37
65 66 68 70 72 74 75 76 77 77 77 78 78 78 78 77 77 76 75 74 74 74 73 73 73 73 73 73 73 73 74 74 74 74 74 75 75 76 76 77 77 77 77 76 76 76 76 75 74 73 72 71 70 69 69 69 70 71 71 71 71 72 72 72 72 72 71 71 70 69 67 66 64 61 58 56 53 52 51 50 50 49 45 39 35
68 70 72 74 75 76 77 78 78 79 80 80 80 80 80 80 79 77 76 75 75 75 74 74 74 74 74 74 74 74 74 74 75 75 75 75 75 76 76 76 76 76 75 75 74 74 74 73 72 71 70 70 70 70 71 71 72 72 73 73 73 73 73 73 73 72 71 70 68 65 63 62 60 59 57 55 53 51 50 50 49 47 42 37 34
71 73 74 75 77 78 79 80 81 82 82 83 83 82 81 80 79 78 77 76 75 75 75 75 75 75 75 74 74 74 74 74 74 74 75 75 75 75 75 75 74 74 73 73 72 71 70 70 70 70 70 71 72 72 72 72 73 72 72 72 71 71 70 70 70 69 67 65 62 60 58 56 54 54 53 52 51 49 49 48 47 43 38 34 32
73 74 76 78 79 80 82 83 84 84 84 84 83 82 80 79 77 76 75 74 73 73 73 73 73 73 73 73 73 73 73 73 73 73 73 74 74 73 73 73 73 72 71 70 70 70 70 70 70 70 70 70 71 70 70 70 70 70 70 69 69 68 68 68 67 66 65 63 60 58 56 53 51 49 49 48 48 48 47 46 43 39 34 31 30
75 77 78 80 81 83 84 84 84 83 82 80 79 77 75 74 72 71 70 70 70 70 70 70 70 70 70 71 71 71 71 71 72 72 72 72 72 72 72 71 70 69 69 69 69 69 69 69 68 67 67 67 67 67 67 67 68 68 68 68 68 67 67 66 66 64 63 61 59 56 54 51 49 46 44 44 45 44 43 41 38 34 31 29 29
78 79 81 82 83 84 84 82 79 76 74 72 71 70 68 68 67 66 66 66 66 67 67 67 68 68 68 69 69 69 70 70 70 71 71 71 71 70 69 69 68 68 68 68 68 67 66 65 64 64 63 63 64 64 65 65 65 65 65 65 65 64 63 62 61 60 58 56 54 52 50 48 46 43 41 40 40 39 38 36 33 30 28 27 28
80 82 83 84 84 82 79 75 72 69 68 66 65 65 64 64 64 64 64 64 65 65 65 66 66 66 67 67 68 68 69 69 69 69 69 69 68 68 67 67 66 66 65 64 64 63 62 61 61 60 60 60 61 61 61 61 62 62 62 62 61 60 59 58 57 55 54 51 48 46 44 43 42 40 37 36 35 34 33 31 29 27 26 26 26
83 84 84 83 80 75 71 68 67 66 65 64 63 63 63 63 63 63 64 64 64 65 65 65 66 66 66 66 67 67 67 67 67 67 66 66 65 64 63 63 62 61 61 60 59 59 58 57 57 57 57 56 56 56 57 57 57 57 57 57 56 55 54 52 51 50 48 46 43 40 39 38 38 36 34 32 31 31 30 28 26 25 25 25 24
85 85 82 78 72 68 66 66 65 65 64 64 64 63 64 64 64 64 64 64 64 64 64 65 65 65 65 65 65 65 64 64 63 63 62 61 60 59 58 58 57 57 56 55 54 54 53 53 52 52 51 51 51 52 52 52 51 51 50 50 49 47 45 43 42 41 40 39 37 35 34 34 33 32 31 30 29 28 27 25 24 23 23 23 22
Wind_Direction
268 272 274 276 277 279 280 281 282 283 283 283 284 284 284 285 286 287 288 289 289 289 289 290 291 293 295 296 298 299 300 301 301 302 303 305 306 307 307 306 305 304 304 304 304 304 304 304 304 304 304 304 304 304 305 305 305 305 306 305 305 304 304 304 305 306 306 307 307 307 308 308 308 307 306 306 304 303 301 299 297 296 294 292 290
270 272 275 276 278 280 281 283 284 284 284 284 285 285 285 286 287 287 288 288 288 288 289 290 292 293 295 297 298 299 300 300 301 302 304 305 306 306 305 304 304 304 304 304 304 304 304 304 304 304 304 305 305 305 305 306 306 306 306 305 305 305 305 306 307 308 308 308 309 309 310 310 310 309 308 307 305 303 301 300 298 296 294 292 291
272 274 275 277 279 280 282 283 284 284 284 284 285 285 285 285 286 286 287 287 287 288 290 291 292 294 295 297 298 299 299 300 301 303 304 305 304 304 303 303 303 303 304 304 304 304 305 305 305 305 305 305 305 306 306 306 306 306 305 305 305 306 307 307 308 309 309 310 310 311 311 311 311 310 308 307 306 304 303 301 299 297 295 293 291
272 274 275 277 279 280 281 282 283 284 284 284 284 284 284 284 285 285 286 287 288 289 290 291 293 294 296 297 298 298 299 301 302 303 304 303 303 302 302 303 303 304 304 304 304 305 305 305 305 305 305 305 306 306 307 307 306 305 305 305 306 307 308 308 309 309 311 311 312 312 312 312 312 310 308 307 306 305 304 303 301 299 297 295 293
272 274 276 277 279 280 281 282 282 283 283 284 284 284 284 284 284 285 286 287 288 290 291 292 293 295 296 297 298 298 300 301 302 303 302 302 302 302 302 303 303 304 304 304 304 305 305 305 305 305 305 306 306 307 307 306 305 305 305 306 307 308 308 308 309 310 311 313 313 314 313 313 312 310 308 307 306 305 304 303 302 300 298 296 294
274 276 277 278 279 280 281 281 282 282 283 283 284 284 284 284 284 285 286 287 288 290 291 293 294 296 297 297 298 299 300 301 302 302 301 302 302 302 303 303 303 304 304 304 305 305 305 305 305 305 306 306 307 307 306 305 305 305 306 307 308 308 308 309 310 311 312 314 314 314 314 313 312 310 309 308 308 307 305 304 302 301 298 296 295
276 277 278 279 279 279 280 281 282 283 283 284 284 284 284 284 284 285 286 287 288 290 292 294 296 296 297 297 299 300 300 301 301 301 301 302 303 303 303 303 303 304 304 305 305 305 304 305 305 306 306 307 307 306 305 304 305 306 307 308 308 308 309 309 310 312 313 315 315 315 315 314 313 312 312 312 311 310 308 306 304 302 300 297 295
277 278 278 279 279 280 281 283 284 285 285 285 285 284 284 284 284 285 286 288 290 292 294 295 296 296 297 298 299 300 300 300 301 301 302 303 303 303 303 303 303 304 304 304 304 304 305 305 306 306 307 307 307 305 304 304 305 306 308 308 309 309 309 310 311 313 315 315 316 316 316 315 315 315 315 314 313 312 311 309 307 305 302 300 298
279 280 280 281 280 280 281 283 285 287 288 287 287 286 284 284 284 286 288 290 292 294 295 295 296 296 297 298 299 299 300 301 302 302 302 303 303 302 303 303 304 304 304 304 304 304 305 306 306 307 307 307 305 304 304 305 306 307 308 308 309 309 310 311 313 314 315 316 316 316 317 317 317 318 318 317 316 315 314 312 311 308 306 304 302
281 282 282 282 281 281 282 285 287 290 292 291 289 287 285 286 287 289 291 292 294 294 294 295 295 297 298 298 299 300 301 301 302 302 302 302 302 302 303 303 304 304 304 304 304 305 305 306 306 306 306 305 304 304 304 305 306 307 308 309 309 310 311 312 314 315 316 317 317 317 318 319 320 321 321 321 320 319 318 316 314 312 310 308 305
284 284 282 283 284 284 285 287 290 293 293 292 289 287 286 287 288 290 291 292 293 293 294 295 296 297 297 298 299 300 300 301 301 301 301 301 301 302 303 303 303 303 303 304 304 305 306 306 306 306 305 304 303 304 305 306 307 308 308 309 310 311 312 314 315 316 316 316 317 318 319 320 321 323 323 323 323 322 321 320 318 317 315 312 308
284 283 283 284 286 286 286 287 289 289 289 288 286 285 285 286 287 289 290 291 291 293 294 295 296 297 298 299 299 299 300 300 300 301 301 301 301 302 303 303 302 302 303 304 304 305 305 306 306 305 303 303 303 304 305 306 307 308 309 310 311 312 313 314 315 315 316 316 317 318 319 320 322 324 324 325 325 324 323 322 321 320 318 316 313
284 284 285 287 286 284 284 286 285 283 282 282 282 281 282 283 285 288 289 290 292 293 294 295 296 297 298 298 298 299 299 300 300 300 300 300 301 302 302 301 302 302 303 304 304 305 305 305 304 303 302 302 303 304 305 306 307 309 310 311 311 313 314 314 314 315 315 315 316 317 318 319 322 324 325 325 326 325 324 323 323 323 321 319 316
284 286 287 286 283 281 282 282 280 278 278 279 279 279 280 283 286 288 290 291 292 294 295 296 297 298 297 297 298 299 299 299 299 300 300 300 300 301 300 301 301 302 302 303 304 305 305 304 303 301 301 302 303 304 305 306 308 309 310 311 312 313 313 313 314 314 313 313 314 316 317 319 322 324 325 326 326 326 325 325 325 325 323 320 318
287 288 287 283 280 279 279 277 276 276 276 277 277 279 281 285 288 289 290 292 293 294 295 296 297 297 297 297 298 298 298 298 298 299 299 299 299 299 299 300 300 301 302 303 304 304 303 302 301 300 301 302 303 304 305 306 308 309 310 310 311 312 312 312 313 312 312 312 313 315 317 319 321 324 325 326 327 327 326 326 326 326 324 321 319
288 286 282 278 275 275 275 274 274 275 276 277 278 281 284 287 288 289 290 292 293 294 295 296 296 296 296 296 297 297 297 297 297 297 297 297 298 298 299 299 300 301 302 302 302 302 301 299 299 300 301 302 303 304 305 306 308 309 309 310 310 311 311 311 311 311 311 311 312 314 316 318 321 323 325 326 327 327 327 327 327 326 323 320 318
283 279 276 272 271 272 272 272 273 274 276 278 280 283 285 287 288 289 290 291 293 294 294 294 294 295 295 296 296 296 295 295 296 296 296 296 297 297 298 298 299 300 300 301 301 300 299 298 298 299 300 301 302 304 305 306 307 308 308 309 309 310 309 310 310 310 309 310 311 314 316 318 321 323 324 326 327 327 327 327 327 325 322 318 316
275 272 270 268 268 269 270 271 273 275 277 280 282 284 285 287 288 289 290 291 292 292 292 293 293 294 294 295 295 294 294 294 294 295 295 295 296 296 296 297 298 299 299 299 299 298 298 297 298 298 299 300 302 303 304 305 306 307 307 308 308 308 308 308 309 308 307 308 310 312 314 317 320 321 323 326 327 327 326 327 327 325 321 316 314
269 268 266 266 266 267 269 271 273 276 279 282 284 285 286 288 289 290 291 291 291 291 292 292 292 293 293 293 293 293 293 293 293 294 294 294 294 295 296 296 297 298 298 298 298 297 297 297 297 298 299 301 302 303 304 305 306 307 307 307 307 307 307 307 307 306 306 307 309 311 313 316 318 320 323 326 327 326 326 326 326 325 320 316 314
266 265 265 266 266 268 270 273 276 279 282 284 285 287 288 289 290 290 290 290 290 290 291 291 291 291 291 292 292 292 292 292 293 293 293 293 294 294 295 296 296 297 297 296 296 296 296 297 298 299 300 301 302 303 304 305 306 306 306 306 306 306 306 306 305 305 305 306 308 310 312 314 317 318 322 325 327 326 325 325 326 325 320 314 313
265 265 265 266 267 270 273 277 280 283 284 286 287 288 289 289 289 289 289 289 289 289 289 289 290 290 290 291 291 291 292 292 291 292 292 292 293 293 294 295 296 295 295 295 295 295 296 297 298 300 301 301 303 304 305 304 305 305 305 305 305 305 306 306 305 304 304 305 307 309 311 313 315 317 320 325 327 326 325 325 326 325 319 313 311
265 265 266 268 271 275 278 281 283 285 286 287 288 288 288 288 288 287 288 288 288 288 288 288 289 289 290 290 291 291 291 291 291 291 292 292 293 293 294 294 294 294 293 293 294 295 296 298 299 300 301 302 303 304 303 303 303 303 303 304 304 305 305 305 305 304 304 305 307 308 310 312 314 315 319 323 326 326 325 324 325 324 319 313 311
266 268 271 274 277 279 281 283 284 285 286 286 286 286 286 286 286 286 287 287 287 288 288 288 288 289 289 290 290 290 290 290 291 291 292 292 292 293 294 294 293 292 292 293 294 296 298 299 299 300 301 302 303 302 301 301 301 301 302 303 304 304 304 304 304 304 304 304 306 307 309 311 312 314 318 322 325 326 324 323 324 324 319 312 311
271 273 275 277 279 280 282 283 284 284 285 285 285 285 285 285 286 286 286 287 287 287 288 288 288 289 289 289 290 290 290 291 291 291 291 292 293 293 294 293 292 291 292 293 295 297 298 299 299 300 301 301 301 301 301 301 300 300 301 302 303 303 303 303 303 303 303 303 305 306 308 310 311 313 316 319 323 325 324 322 323 323 319 311 310
273 274 276 277 279 280 281 282 282 283 284 284 284 285 285 285 286 286 286 287 287 287 288 288 289 289 289 290 290 290 290 290 290 290 291 292 293 293 293 293 292 292 293 294 296 298 298 298 298 299 300 300 300 300 301 300 300 299 300 300 301 301 301 300 301 301 302 302 304 305 307 309 310 311 314 317 321 323 323 321 321 322 319 312 309
274 275 276 277 278 279 280 281 282 283 284 284 285 285 285 286 286 286 287 287 287 288 288 288 289 289 289 289 289 289 289 289 290 291 292 292 293 293 292 293 294 294 295 296 296 297 297 297 298 298 299 300 300 300 301 301 300 300 300 300 300 300 299 298 299 300 301 302 303 304 306 308 309 310 312 315 319 321 322 320 320 321 319 311 308
274 275 277 278 279 280 281 282 283 283 284 284 285 285 285 286 286 286 287 287 287 287 288 288 288 288 288 288 288 288 288 289 290 291 291 291 291 292 292 293 294 295 296 297 297 297 296 296 297 298 299 299 300 301 301 301 300 299 299 299 299 298 298 298 299 300 300 301 302 303 306 308 309 309 310 314 317 319 320 319 318 319 318 311 305
276 277 279 280 280 281 282 283 283 284 284 284 285 285 285 285 286 286 286 286 286 287 287 287 287 287 287 287 288 288 289 289 290 290 289 290 291 292 293 294 295 296 297 297 297 296 296 296 297 298 299 300 301 301 301 299 298 297 297 298 298 298 298 299 299 300 300 300 301 303 305 307 307 307 309 312 315 317 319 318 317 318 317 311 304
279 279 280 281 281 282 283 283 283 284 284 284 284 284 284 284 285 285 285 285 285 285 286 286 286 286 287 287 288 288 288 288 288 288 288 289 291 292 293 294 294 295 296 296 295 295 296 297 298 299 300 300 301 300 298 297 296 295 296 297 297 297 297 298 299 299 299 300 301 302 304 305 306 306 307 310 313 316 316 316 315 316 316 312 304
281 281 281 282 282 283 283 283 283 284 284 283 283 283 283 283 284 284 284 284 285 285 285 286 286 286 287 287 287 287 287 287 287 288 288 289 290 291 291 292 293 294 294 293 293 295 297 298 299 299 299 299 298 298 297 295 294 294 295 296 296 296 296 297 297 298 298 299 300 301 302 304 304 305 306 308 312 314 314 314 313 314 315 312 304
282 282 282 283 283 283 283 283 283 283 283 283 283 283 283 284 284 284 285 285 285 286 286 286 286 286 286 286 286 287 287 288 288 288 288 289 289 290 290 291 291 292 292 291 292 294 296 297 297 297 297 297 296 296 294 293 293 294 295 295 295 295 295 295 296 297 297 298 299 300 301 302 303 303 304 307 310 312 312 311 312 313 314 311 304
282 282 282 283 283 283 283 283 283 283 283 284 284 284 285 285 285 286 286 286 286 287 287 287 287 287 287 287 287 287 288 288 288 288 288 288 288 289 289 290 290 290 290 290 292 294 295 295 295 295 295 295 294 293 291 291 292 293 295 295 294 294 293 293 294 296 296 296 297 298 299 300 301 302 303 305 308 310 310 309 310 311 313 311 304
282 282 282 282 282 283 283 283 284 284 285 285 285 286 286 286 287 287 287 287 287 287 287 287 287 287 287 287 287 287 287 287 287 288 288 288 288 288 288 288 289 289 289 290 292 292 293 293 294 294 294 293 292 291 290 291 292 293 293 293 292 292 292 292 293 294 294 294 295 296 297 298 300 301 302 304 306 308 307 307 308 309 311 310 303
282 282 282 283 283 283 284 284 284 285 285 285 286 286 286 286 286 286 287 287 287 287 287 287 287 287 287 287 287 287 287 287 287 287 287 288 288 288 288 288 288 289 289 290 291 291 292 293 294 294 293 292 291 290 290 290 291 291 291 291 290 290 289 290 290 291 290 291 292 294 295 297 299 300 301 302 305 306 305 305 306 308 309 308 302
283 283 283 283 283 283 284 284 284 284 284 285 285 286 286 286 286 287 287 287 287 288 288 287 287 287 287 287 287 287 287 287 287 287 287 287 287 287 288 288 289 289 289 290 291 291 292 292 293 293 292 292 291 290 289 289 289 289 289 289 288 288 287 288 288 288 288 289 291 292 294 296 298 299 299 301 302 303 303 303 305 306 308 307 300
283 283 283 283 283 284 284 284 285 285 286 286 287 287 287 287 287 287 287 287 287 287 287 287 287 287 287 286 286 287 287 287 288 288 288 288 287 287 288 288 289 289 290 291 291 292 292 292 292 292 291 291 290 289 289 288 288 288 288 287 287 286 286 286 286 286 287 288 290 292 294 296 297 297 298 299 300 300 300 301 303 304 306 305 299
282 283 283 284 284 285 286 286 287 288 289 289 289 289 289 289 288 287 287 286 286 286 286 286 286 286 287 287 287 287 288 288 288 288 288 288 288 288 288 289 289 290 290 291 291 292 292 292 292 291 291 290 290 289 289 289 288 287 287 287 286 286 285 284 284 285 286 288 290 292 293 294 295 296 296 297 298 297 297 299 300 302 304 303 297
283 284 285 286 287 288 289 290 290 291 291 292 291 291 290 289 288 287 286 286 285 286 286 287 287 288 288 288 288 289 289 288 288 288 288 289 289 289 289 289 290 290 291 291 291 291 291 291 291 291 291 290 290 289 289 288 287 286 286 286 285 285 284 284 284 285 287 289 290 291 292 293 293 294 294 295 295 295 295 296 298 300 302 301 295
285 286 287 288 289 290 291 292 292 293 293 293 293 292 292 291 290 289 287 286 286 286 287 288 288 289 289 289 289 289 288 288 289 289 289 289 289 290 290 291 291 291 291 291 291 290 290 290 290 290 290 290 290 289 288 287 286 285 284 284 284 284 284 284 285 286 287 288 289 289 290 291 291 291 292 292 293 292 292 294 295 297 299 298 293
287 288 289 290 291 292 293 293 294 294 294 294 294 293 292 292 291 290 289 288 287 287 287 288 288 288 289 289 289 288 288 289 289 289 289 289 290 290 290 290 290 290 290 290 290 290 290 290 290 290 290 290 289 288 287 286 284 283 282 283 283 283 283 284 285 285 286 286 286 287 288 288 289 289 290 290 290 289 290 291 293 295 297 295 289
289 290 291 292 293 294 294 294 294 295 295 294 294 293 292 291 291 290 289 288 288 287 287 287 287 288 288 288 288 288 288 288 289 289 289 289 289 289 289 289 289 289 289 289 290 290 290 290 290 290 290 289 288 287 286 285 283 283 282 282 283 283 283 283 283 283 284 284 284 284 285 286 287 287 287 287 286 286 287 288 290 293 294 291 285
292 293 294 294 294 294 295 295 295 295 295 294 293 292 291 291 290 289 288 287 287 286 286 286 286 286 286 286 287 287 287 287 287 288 288 288 288 288 288 288 288 289 289 289 290 290 290 290 290 290 289 288 287 286 285 283 283 282 282 282 282 282 282 282 282 282 282 281 282 282 283 284 284 284 284 284 283 283 284 286 288 290 291 287 281
294 294 294 295 295 296 297 297 297 296 295 294 292 291 290 289 288 288 287 286 285 285 285 285 285 285 285 285 285 286 286 286 287 287 287 287 288 288 288 288 288 289 289 289 289 289 290 290 289 289 288 287 286 285 284 283 282 281 281 281 281 281 281 281 280 280 280 280 280 281 281 282 282 281 281 281 280 281 282 283 286 288 287 282 277
294 295 296 297 298 298 298 298 297 296 294 293 291 290 289 288 288 287 286 285 284 284 284 283 284 284 284 284 285 285 286 286 286 286 286 286 287 287 288 288 289 289 289 290 290 290 290 290 289 288 288 287 286 285 284 283 282 282 281 281 280 280 280 279 279 279 279 279 280 280 280 280 280 279 278 277 277 278 279 281 283 285 282 277 275
296 297 298 299 299 299 298 297 296 295 293 292 290 289 288 288 287 287 286 286 285 284 284 284 284 284 284 284 284 285 285 285 285 286 286 286 287 287 288 288 289 289 289 289 289 289 289 289 288 288 287 287 286 285 284 284 283 282 282 281 281 280 279 279 278 278 278 278 278 278 279 279 279 278 276 275 275 275 276 278 280 280 276 272 273
298 299 299 300 299 299 298 297 295 294 293 291 290 290 289 288 288 287 286 286 285 285 284 284 284 284 284 284 284 284 285 285 286 286 287 288 288 289 289 289 289 289 289 289 289 288 288 288 288 288 287 287 286 286 285 285 284 284 283 282 281 280 279 278 277 277 276 276 276 276 276 276 276 276 274 273 272 272 274 276 277 274 269 268 273
299 300 300 299 299 298 297 296 295 294 293 292 291 291 290 289 289 288 287 286 285 285 284 284 284 284 284 285 285 285 286 286 287 288 288 289 289 289 289 289 289 289 289 289 289 289 289 289 289 288 288 288 287 287 286 286 285 284 284 282 281 280 279 277 276 275 274 273 273 272 271 271 271 271 271 270 269 269 271 272 270 266 264 266 273
300 300 299 299 299 298 297 296 295 294 293 293 293 292 292 291 290 289 288 287 287 286 286 286 286 286 286 286 286 287 287 288 288 288 289 289 289 289 290 290 290 290 290 290 290 290 290 290 290 290 290 289 289 289 288 287 286 285 284 283 281 280 278 276 275 273 272 271 269 268 266 265 265 266 267 266 266 266 266 265 262 259 261 267 272
299 299 299 299 298 297 296 294 294 293 293 293 293 293 292 292 291 290 289 289 288 288 288 287 287 287 287 288 288 288 288 288 288 289 289 289 290 290 290 290 290 290 290 291 291 291 291 292 292 292 292 291 291 290 289 288 287 286 285 284 282 280 277 275 272 270 268 267 265 264 262 260 259 260 261 261 260 260 259 257 254 255 261 268 271
299 299 299 299 297 295 294 293 293 293 293 293 293 293 292 292 291 291 291 290 290 289 289 289 289 288 288 288 288 289 289 289 289 290 290 290 290 290 290 290 290 291 291 291 292 292 293 293 294 294 294 293 293 292 292 291 290 289 288 286 283 280 277 273 269 266 263 261 259 258 256 254 253 254 255 254 253 252 250 248 248 254 262 266 268
299 299 299 297 295 293 292 292 292 292 292 292 292 292 292 292 292 291 291 291 290 290 290 289 289 289 289 289 290 290 290 290 290 290 290 290 290 290 290 290 291 291 292 292 293 294 295 295 295 295 295 295 295 295 295 295 294 294 292 289 286 282 276 271 265 261 258 254 252 250 248 246 246 247 247 246 244 242 240 241 247 255 261 263 264
Height
5753 5753 5752 5751 5750 5748 5747 5747 5746 5745 5744 5742 5741 5739 5737 5735 5733 5731 5730 5728 5726 5723 5720 5718 5715 5712 5709 5706 5703 5700 5697 5694 5690 5687 5683 5679 5676 5672 5668 5664 5660 5656 5651 5647 5643 5638 5634 5629 5623 5619 5614 5610 5605 5600 5596 5591 5586 5582 5577 5572 5567 5563 5560 5557 5555 5556 5552 5544 5537 5531 5526 5522 5517 5510 5505 5500 5495 5490 5486 5480 5475 5472 5468 5464 5462
5748 5747 5746 5745 5743 5742 5741 5741 5740 5739 5738 5736 5734 5733 5731 5729 5727 5725 5723 5721 5718 5715 5713 5710 5707 5704 5701 5698 5695 5692 5689 5686 5682 5679 5675 5671 5667 5663 5659 5655 5651 5646 5642 5637 5633 5628 5624 5619 5614 5609 5605 5600 5596 5591 5586 5582 5577 5572 5568 5563 5559 5554 5550 5547 5544 5543 5542 5536 5528 5522 5515 5510 5506 5500 5494 5490 5486 5482 5478 5472 5467 5464 5459 5455 5452
5742 5741 5740 5738 5737 5736 5735 5734 5733 5732 5731 5729 5727 5726 5723 5721 5720 5718 5716 5713 5711 5708 5705 5702 5699 5696 5693 5690 5687 5684 5681 5677 5673 5670 5666 5662 5657 5653 5649 5645 5641 5637 5632 5628 5623 5618 5614 5609 5604 5600 5596 5591 5587 5582 5578 5573 5568 5563 5559 5554 5550 5546 5540 5537 5534 5531 5530 5526 5519 5513 5507 5501 5496 5490 5485 5480 5475 5472 5469 5465 5460 5456 5451 5446 5444
5736 5734 5733 5732 5731 5730 5729 5728 5726 5725 5723 5722 5720 5718 5716 5714 5712 5710 5708 5705 5703 5700 5697 5694 5691 5688 5685 5682 5679 5675 5672 5668 5664 5660 5657 5653 5648 5644 5639 5635 5631 5627 5623 5618 5614 5609 5605 5600 5596 5591 5587 5583 5578 5574 5569 5565 5560 5555 5551 5547 5542 5538 5533 5528 5524 5521 5518 5516 5510 5503 5497 5492 5487 5481 5476 5472 5468 5463 5459 5455 5452 5448 5443 5438 5435
5729 5728 5727 5726 5725 5724 5722 5721 5719 5718 5716 5714 5712 5710 5708 5706 5704 5702 5700 5697 5694 5692 5689 5686 5683 5679 5676 5673 5670 5667 5663 5660 5656 5651 5648 5643 5639 5635 5630 5626 5622 5618 5614 5609 5605 5600 5596 5591 5587 5583 5578 5574 5570 5565 5561 5556 5552 5547 5543 5539 5534 5530 5525 5520 5516 5512 5508 5505 5501 5494 5488 5483 5479 5473 5466 5463 5461 5457 5452 5447 5442 5438 5435 5430 5426
5724 5722 5721 5720 5719 5717 5716 5714 5712 5710 5708 5706 5704 5702 5700 5699 5696 5694 5691 5688 5686 5683 5681 5678 5675 5671 5667 5664 5661 5658 5654 5650 5647 5643 5638 5634 5629 5624 5620 5615 5612 5608 5604 5600 5596 5592 5587 5582 5578 5574 5570 5565 5561 5557 5552 5548 5544 5540 5535 5531 5527 5522 5517 5512 5508 5504 5500 5496 5491 5486 5481 5475 5471 5467 5460 5453 5450 5447 5444 5441 5436 5429 5425 5422 5419
5718 5716 5715 5714 5712 5710 5709 5707 5705 5703 5701 5698 5696 5695 5693 5690 5688 5685 5682 5680 5677 5675 5672 5669 5666 5662 5659 5656 5653 5649 5645 5641 5638 5633 5629 5624 5619 5614 5610 5606 5602 5599 5595 5591 5587 5583 5578 5574 5569 5565 5561 5557 5552 5548 5544 5540 5536 5532 5528 5523 5519 5514 5509 5505 5501 5497 5493 5488 5482 5478 5473 5468 5462 5459 5454 5447 5442 5437 5431 5429 5428 5421 5415 5412 5410
5711 5710 5709 5707 5705 5703 5701 5699 5697 5695 5693 5691 5689 5687 5684 5682 5679 5676 5674 5671 5669 5666 5663 5660 5657 5653 5650 5647 5644 5640 5636 5632 5629 5624 5619 5615 5610 5605 5601 5597 5593 5590 5586 5583 5579 5575 5570 5565 5561 5556 5552 5548 5544 5540 5536 5533 5529 5524 5520 5516 5511 5506 5501 5497 5493 5489 5484 5480 5474 5469 5465 5461 5455 5451 5447 5440 5436 5432 5424 5418 5416 5411 5406 5403 5400
5705 5703 5702 5700 5697 5695 5693 5691 5689 5687 5685 5683 5680 5678 5675 5673 5670 5668 5665 5663 5660 5657 5654 5651 5648 5645 5642 5639 5635 5631 5627 5623 5619 5614 5609 5605 5600 5595 5591 5587 5584 5581 5577 5574 5570 5566 5562 5557 5552 5548 5543 5539 5536 5532 5529 5525 5522 5517 5513 5508 5504 5499 5494 5489 5485 5481 5476 5471 5467 5462 5457 5453 5447 5443 5439 5433 5427 5423 5418 5411 5406 5401 5396 5394 5390
5697 5695 5694 5692 5689 5687 5685 5683 5681 5678 5676 5674 5672 5669 5666 5664 5661 5659 5656 5654 5651 5649 5645 5643 5640 5637 5633 5630 5626 5623 5618 5614 5610 5605 5600 5596 5591 5587 5583 5579 5575 5572 5568 5565 5561 5557 5553 5548 5544 5539 5535 5532 5528 5525 5521 5517 5514 5510 5506 5501 5496 5491 5487 5482 5478 5473 5469 5464 5459 5454 5450 5445 5439 5434 5430 5425 5419 5414 5409 5403 5398 5393 5387 5384 5382
5689 5687 5685 5683 5681 5679 5677 5674 5671 5669 5667 5665 5663 5661 5658 5655 5653 5651 5648 5646 5643 5640 5637 5634 5631 5628 5625 5621 5618 5614 5609 5605 5601 5597 5592 5587 5583 5579 5575 5571 5567 5563 5559 5556 5552 5548 5545 5540 5535 5531 5527 5524 5520 5517 5514 5510 5506 5502 5498 5494 5489 5484 5479 5474 5470 5466 5461 5457 5451 5446 5441 5438 5433 5427 5422 5418 5413 5407 5401 5394 5388 5384 5378 5373 5371
5680 5678 5677 5675 5672 5671 5669 5667 5664 5662 5660 5658 5655 5653 5650 5647 5645 5643 5640 5637 5634 5632 5629 5626 5623 5619 5616 5612 5608 5604 5600 5597 5593 5588 5584 5579 5575 5571 5567 5563 5559 5554 5551 5547 5543 5540 5536 5532 5527 5523 5520 5517 5513 5510 5506 5503 5499 5495 5491 5486 5481 5476 5471 5466 5462 5459 5454 5449 5445 5439 5434 5430 5427 5421 5415 5410 5406 5400 5395 5388 5381 5376 5370 5363 5360
5672 5670 5668 5666 5665 5663 5662 5660 5658 5655 5653 5650 5647 5645 5642 5639 5637 5635 5632 5628 5625 5623 5620 5617 5613 5610 5607 5603 5599 5595 5592 5588 5584 5580 5576 5571 5567 5564 5559 5555 5551 5546 5542 5539 5534 5531 5527 5523 5519 5516 5513 5509 5506 5503 5499 5495 5492 5488 5484 5479 5474 5469 5464 5459 5455 5451 5446 5441 5438 5433 5428 5424 5420 5415 5408 5403 5398 5393 5388 5383 5376 5370 5364 5358 5353
5663 5662 5660 5658 5657 5656 5655 5653 5651 5648 5645 5642 5639 5637 5634 5632 5629 5626 5623 5620 5617 5614 5610 5607 5604 5601 5598 5594 5590 5586 5583 5579 5575 5571 5567 5564 5561 5557 5551 5547 5543 5539 5535 5531 5527 5523 5519 5515 5511 5508 5505 5502 5499 5495 5492 5488 5485 5481 5477 5472 5468 5463 5458 5453 5449 5445 5440 5435 5432 5428 5423 5418 5413 5409 5403 5397 5391 5386 5380 5375 5370 5364 5359 5354 5348
5654 5653 5652 5651 5650 5649 5647 5645 5642 5640 5638 5634 5632 5629 5627 5624 5621 5618 5614 5611 5608 5605 5601 5598 5595 5592 5588 5585 5581 5578 5574 5570 5567 5563 5559 5556 5554 5550 5545 5539 5535 5531 5527 5523 5520 5515 5511 5508 5504 5501 5497 5494 5491 5488 5485 5481 5478 5475 5470 5466 5462 5457 5452 5448 5444 5440 5435 5429 5425 5421 5417 5412 5408 5403 5398 5392 5386 5380 5374 5368 5362 5357 5353 5350 5346
5646 5646 5645 5644 5643 5642 5639 5636 5634 5632 5629 5627 5624 5622 5619 5616 5613 5609 5606 5603 5600 5596 5593 5589 5586 5583 5579 5576 5573 5570 5566 5561 5558 5555 5551 5548 5545 5542 5538 5533 5528 5523 5519 5516 5512 5508 5504 5501 5498 5494 5490 5487 5484 5481 5478 5475 5472 5469 5464 5460 5456 5451 5447 5442 5438 5434 5429 5424 5420 5415 5411 5406 5402 5397 5391 5386 5381 5375 5369 5364 5357 5351 5348 5346 5343
5640 5640 5639 5637 5635 5633 5630 5628 5625 5623 5621 5619 5617 5614 5610 5607 5604 5600 5597 5594 5591 5588 5584 5581 5577 5574 5571 5568 5565 5562 5557 5553 5550 5547 5544 5540 5537 5534 5530 5526 5522 5517 5513 5509 5506 5501 5497 5494 5491 5488 5484 5480 5477 5474 5471 5468 5466 5462 5458 5454 5450 5446 5441 5437 5433 5428 5423 5418 5414 5409 5405 5401 5396 5391 5386 5380 5375 5369 5365 5360 5353 5347 5343 5341 5339
5634 5632 5630 5628 5626 5624 5622 5620 5617 5615 5613 5611 5608 5604 5601 5598 5595 5592 5589 5585 5582 5579 5575 5572 5569 5566 5563 5560 5557 5553 5548 5544 5541 5539 5535 5531 5528 5525 5522 5518 5515 5510 5506 5502 5499 5494 5490 5487 5484 5482 5478 5474 5471 5467 5464 5461 5459 5456 5452 5448 5444 5440 5435 5432 5428 5423 5419 5414 5409 5404 5400 5396 5392 5387 5382 5376 5370 5364 5359 5354 5349 5343 5339 5335 5334
5625 5623 5621 5619 5617 5616 5614 5611 5609 5607 5604 5601 5598 5595 5592 5589 5586 5583 5580 5576 5573 5570 5566 5563 5560 5557 5554 5551 5548 5544 5540 5536 5532 5530 5526 5522 5520 5517 5514 5510 5507 5503 5498 5495 5492 5488 5483 5479 5476 5474 5472 5468 5464 5461 5457 5454 5452 5449 5445 5442 5438 5434 5430 5426 5422 5418 5414 5410 5405 5401 5396 5392 5387 5383 5378 5372 5366 5361 5355 5350 5344 5339 5335 5331 5328
5616 5614 5612 5611 5609 5607 5605 5602 5600 5597 5594 5592 5589 5586 5583 5580 5577 5574 5570 5567 5564 5561 5558 5555 5552 5548 5545 5542 5539 5535 5531 5527 5523 5520 5517 5513 5510 5508 5506 5503 5499 5494 5491 5488 5485 5481 5477 5472 5469 5466 5464 5460 5457 5453 5450 5447 5444 5441 5438 5435 5431 5428 5424 5420 5416 5412 5409 5405 5401 5396 5392 5388 5383 5379 5374 5368 5362 5357 5351 5346 5340 5335 5331 5327 5324
5608 5606 5604 5603 5600 5598 5596 5593 5591 5588 5585 5582 5580 5577 5574 5571 5568 5565 5561 5558 5555 5552 5549 5546 5543 5540 5537 5533 5530 5527 5522 5518 5513 5510 5507 5504 5500 5498 5498 5495 5490 5486 5483 5481 5478 5475 5470 5466 5462 5458 5455 5452 5450 5446 5443 5439 5436 5434 5431 5427 5424 5421 5418 5415 5410 5406 5403 5400 5396 5391 5387 5383 5379 5374 5370 5365 5359 5353 5348 5342 5336 5330 5326 5323 5321
5599 5598 5596 5593 5591 5589 5586 5584 5582 5579 5576 5574 5571 5568 5565 5561 5559 5556 5552 5549 5546 5543 5540 5537 5534 5532 5528 5525 5522 5518 5513 5509 5505 5500 5497 5494 5490 5488 5488 5487 5483 5478 5475 5474 5471 5468 5463 5459 5455 5451 5447 5445 5442 5439 5436 5432 5429 5426 5423 5420 5417 5414 5411 5408 5404 5401 5397 5394 5390 5386 5382 5378 5374 5370 5365 5360 5355 5350 5344 5338 5332 5327 5322 5318 5315
5591 5589 5587 5584 5582 5580 5578 5575 5573 5570 5567 5565 5562 5559 5556 5552 5550 5547 5543 5540 5537 5534 5531 5528 5525 5523 5520 5516 5513 5509 5504 5500 5496 5491 5487 5483 5481 5479 5478 5477 5474 5470 5468 5466 5464 5460 5456 5453 5448 5444 5440 5437 5435 5432 5429 5425 5421 5418 5414 5412 5409 5406 5403 5400 5397 5394 5391 5388 5384 5381 5376 5373 5369 5365 5361 5356 5351 5346 5341 5335 5330 5324 5319 5315 5311
5582 5580 5577 5575 5573 5571 5569 5566 5564 5561 5558 5555 5553 5550 5547 5543 5540 5537 5534 5531 5528 5525 5522 5519 5516 5514 5511 5507 5504 5500 5496 5491 5487 5482 5478 5474 5471 5469 5467 5465 5464 5462 5460 5459 5456 5452 5448 5445 5441 5437 5433 5430 5428 5425 5422 5418 5414 5410 5406 5403 5401 5398 5396 5393 5390 5388 5385 5381 5378 5375 5371 5367 5363 5360 5356 5352 5347 5343 5338 5332 5327 5321 5317 5313 5308
5573 5571 5568 5566 5564 5562 5560 5557 5554 5552 5549 5546 5544 5541 5537 5534 5531 5528 5525 5522 5518 5516 5513 5509 5506 5504 5501 5498 5496 5492 5487 5482 5478 5474 5470 5465 5462 5460 5457 5454 5452 5451 5452 5451 5448 5444 5440 5437 5434 5430 5427 5424 5420 5418 5415 5411 5407 5403 5399 5396 5394 5392 5389 5386 5383 5381 5378 5375 5372 5369 5365 5361 5357 5354 5350 5346 5342 5338 5334 5329 5323 5318 5314 5310 5306
5563 5561 5559 5557 5554 5552 5550 5547 5545 5542 5540 5537 5534 5531 5528 5525 5522 5519 5516 5513 5509 5506 5503 5499 5496 5493 5490 5488 5486 5482 5477 5473 5470 5466 5462 5458 5454 5450 5447 5445 5442 5440 5441 5442 5440 5436 5432 5428 5425 5423 5420 5417 5413 5410 5407 5403 5399 5395 5392 5389 5387 5385 5382 5379 5377 5374 5371 5368 5365 5362 5359 5355 5351 5347 5344 5341 5337 5333 5329 5325 5320 5315 5310 5307 5304
5553 5551 5549 5547 5544 5542 5540 5538 5535 5533 5530 5528 5525 5522 5519 5516 5513 5510 5507 5503 5499 5496 5493 5489 5486 5483 5480 5477 5474 5471 5468 5465 5462 5459 5454 5449 5445 5441 5438 5436 5434 5431 5429 5429 5429 5427 5425 5421 5418 5415 5412 5410 5406 5402 5399 5395 5391 5387 5384 5381 5379 5377 5375 5372 5370 5367 5364 5362 5359 5356 5352 5349 5345 5342 5338 5335 5331 5327 5323 5320 5316 5311 5306 5303 5301
5544 5541 5539 5537 5534 5532 5530 5528 5526 5523 5521 5518 5516 5513 5510 5507 5504 5501 5498 5493 5489 5486 5482 5479 5476 5472 5469 5466 5463 5460 5459 5457 5454 5450 5445 5441 5437 5432 5429 5427 5425 5422 5420 5418 5416 5415 5415 5413 5410 5407 5404 5401 5398 5394 5390 5387 5383 5379 5376 5373 5371 5368 5366 5364 5362 5359 5356 5354 5352 5349 5345 5342 5339 5336 5333 5329 5325 5321 5317 5314 5310 5306 5301 5298 5296
5534 5531 5529 5527 5524 5522 5520 5518 5516 5513 5511 5508 5506 5503 5499 5496 5494 5491 5487 5482 5479 5475 5471 5468 5466 5462 5458 5456 5454 5451 5450 5448 5444 5441 5437 5434 5430 5425 5421 5419 5416 5413 5411 5408 5404 5403 5403 5402 5401 5398 5395 5391 5388 5385 5382 5379 5375 5371 5368 5365 5362 5360 5358 5356 5354 5351 5349 5347 5344 5341 5339 5336 5333 5330 5327 5324 5320 5315 5312 5308 5305 5301 5296 5293 5290
5523 5521 5519 5517 5514 5512 5510 5508 5505 5503 5500 5498 5495 5492 5489 5485 5483 5480 5476 5472 5468 5465 5461 5458 5455 5452 5449 5447 5444 5441 5440 5438 5435 5432 5429 5426 5422 5418 5414 5411 5408 5406 5403 5398 5394 5394 5394 5392 5390 5388 5385 5382 5379 5376 5372 5369 5365 5362 5359 5356 5354 5352 5350 5348 5345 5343 5341 5339 5336 5334 5332 5329 5326 5323 5321 5318 5315 5310 5306 5303 5299 5296 5291 5288 5285
5513 5510 5508 5506 5503 5501 5499 5496 5494 5491 5489 5486 5483 5481 5477 5474 5471 5468 5465 5461 5457 5454 5451 5448 5445 5442 5440 5438 5435 5432 5430 5428 5425 5423 5420 5417 5414 5410 5407 5404 5401 5398 5394 5390 5386 5386 5386 5383 5381 5379 5376 5373 5370 5367 5363 5359 5355 5353 5351 5348 5346 5344 5341 5339 5337 5335 5333 5331 5328 5326 5324 5322 5319 5317 5314 5312 5309 5305 5301 5297 5294 5290 5287 5283 5280
5502 5500 5497 5495 5493 5490 5488 5485 5483 5480 5477 5474 5472 5469 5466 5463 5460 5456 5452 5450 5447 5444 5440 5437 5434 5432 5429 5427 5425 5423 5421 5418 5415 5413 5410 5408 5405 5402 5398 5395 5392 5389 5385 5382 5380 5379 5377 5375 5373 5371 5367 5364 5362 5358 5354 5349 5346 5344 5342 5340 5337 5335 5333 5330 5328 5327 5325 5323 5320 5319 5317 5314 5312 5310 5307 5305 5303 5299 5296 5292 5288 5285 5282 5278 5275
5492 5489 5487 5485 5482 5479 5477 5474 5471 5469 5466 5463 5460 5457 5454 5451 5449 5446 5442 5439 5437 5434 5431 5428 5425 5422 5420 5417 5415 5413 5411 5408 5406 5403 5400 5397 5395 5392 5389 5386 5383 5380 5377 5374 5373 5372 5369 5366 5364 5362 5359 5356 5353 5349 5345 5341 5338 5335 5333 5331 5330 5327 5324 5322 5320 5319 5317 5315 5313 5311 5309 5307 5305 5303 5300 5298 5296 5293 5290 5287 5283 5280 5277 5273 5270
5482 5479 5477 5474 5472 5469 5466 5464 5461 5458 5455 5452 5450 5447 5444 5441 5439 5437 5433 5430 5427 5424 5421 5419 5416 5413 5410 5408 5405 5402 5400 5398 5396 5393 5391 5387 5384 5382 5379 5377 5374 5371 5367 5366 5365 5363 5360 5357 5355 5353 5349 5347 5344 5340 5336 5332 5329 5327 5325 5324 5322 5319 5316 5314 5312 5311 5309 5307 5305 5303 5301 5299 5297 5296 5293 5291 5288 5285 5283 5280 5277 5274 5271 5268 5265
5471 5469 5466 5464 5462 5459 5456 5454 5451 5449 5446 5443 5440 5438 5435 5432 5429 5427 5424 5421 5418 5415 5411 5408 5405 5403 5400 5398 5395 5392 5389 5387 5384 5382 5381 5379 5375 5371 5368 5367 5365 5362 5358 5356 5354 5353 5351 5348 5346 5343 5340 5337 5334 5331 5327 5324 5321 5319 5317 5316 5314 5312 5309 5306 5305 5303 5301 5299 5297 5295 5293 5291 5289 5288 5286 5284 5282 5278 5276 5273 5271 5268 5265 5262 5260
5461 5459 5456 5454 5452 5449 5447 5444 5442 5439 5437 5434 5431 5428 5426 5423 5420 5417 5414 5411 5409 5406 5402 5398 5395 5391 5389 5387 5384 5382 5379 5377 5374 5372 5369 5368 5366 5363 5359 5357 5355 5352 5349 5346 5343 5341 5339 5337 5335 5333 5330 5328 5325 5321 5318 5315 5312 5310 5308 5307 5305 5303 5300 5298 5296 5294 5292 5290 5288 5286 5284 5283 5282 5280 5279 5277 5275 5272 5269 5267 5265 5262 5259 5256 5254
5452 5449 5447 5444 5442 5440 5437 5435 5432 5429 5427 5424 5422 5419 5416 5413 5410 5407 5404 5401 5398 5395 5392 5389 5385 5382 5378 5375 5373 5371 5369 5367 5365 5362 5359 5356 5354 5352 5350 5348 5346 5343 5340 5337 5333 5330 5328 5326 5323 5321 5319 5317 5314 5311 5308 5305 5302 5300 5298 5297 5295 5294 5291 5289 5287 5285 5283 5281 5279 5277 5276 5275 5273 5272 5271 5270 5267 5265 5262 5261 5259 5256 5253 5251 5249
5443 5440 5438 5435 5433 5430 5428 5425 5423 5420 5417 5415 5412 5409 5406 5402 5399 5396 5393 5390 5387 5383 5380 5378 5375 5372 5369 5365 5363 5361 5358 5356 5354 5352 5350 5346 5343 5340 5338 5337 5335 5332 5330 5327 5324 5320 5318 5316 5312 5309 5307 5304 5302 5299 5296 5294 5292 5290 5288 5287 5285 5284 5282 5280 5278 5275 5274 5272 5270 5268 5267 5266 5265 5264 5263 5262 5260 5257 5255 5254 5252 5250 5248 5245 5243
5434 5431 5429 5427 5424 5422 5419 5416 5413 5411 5408 5404 5401 5398 5395 5391 5388 5385 5382 5379 5375 5372 5369 5367 5364 5361 5359 5356 5353 5351 5348 5346 5344 5341 5339 5336 5333 5330 5327 5325 5323 5321 5319 5316 5313 5310 5308 5305 5302 5299 5296 5293 5291 5288 5286 5283 5281 5280 5278 5276 5275 5274 5272 5270 5268 5266 5264 5263 5261 5259 5258 5258 5257 5256 5255 5254 5252 5250 5249 5247 5245 5244 5242 5240 5238
5425 5423 5420 5418 5415 5412 5410 5407 5403 5400 5397 5393 5390 5387 5383 5380 5377 5374 5370 5367 5364 5361 5358 5355 5353 5350 5348 5345 5343 5341 5339 5336 5333 5331 5328 5326 5323 5320 5317 5314 5311 5309 5307 5304 5301 5298 5296 5293 5291 5288 5285 5283 5280 5277 5275 5273 5271 5269 5267 5265 5264 5263 5261 5259 5257 5256 5255 5253 5252 5251 5250 5249 5248 5248 5247 5245 5244 5243 5242 5240 5239 5237 5235 5234 5233
5416 5413 5411 5408 5405 5402 5399 5396 5393 5389 5386 5382 5378 5375 5371 5368 5365 5362 5359 5356 5353 5350 5347 5344 5342 5339 5337 5334 5332 5330 5328 5326 5323 5320 5318 5316 5313 5310 5307 5303 5300 5298 5295 5292 5290 5287 5284 5281 5279 5276 5274 5271 5268 5266 5264 5262 5259 5257 5256 5254 5253 5251 5250 5248 5247 5246 5245 5243 5242 5241 5241 5240 5240 5239 5238 5237 5236 5235 5235 5233 5232 5231 5229 5228 5227
5406 5404 5401 5398 5395 5392 5388 5385 5381 5378 5374 5370 5366 5362 5359 5356 5353 5350 5347 5344 5341 5338 5336 5333 5331 5328 5326 5323 5321 5318 5316 5315 5312 5309 5307 5304 5302 5299 5296 5293 5289 5287 5284 5281 5278 5275 5272 5270 5267 5264 5262 5259 5257 5254 5252 5250 5248 5246 5244 5243 5241 5240 5239 5238 5236 5235 5234 5233 5232 5232 5232 5232 5231 5230 5230 5229 5228 5228 5227 5226 5225 5224 5223 5222 5221
5396 5393 5390 5387 5383 5380 5376 5373 5369 5365 5361 5357 5354 5350 5346 5343 5340 5337 5335 5332 5329 5327 5324 5322 5319 5317 5314 5312 5310 5307 5305 5303 5301 5298 5296 5293 5290 5287 5284 5281 5278 5275 5272 5269 5267 5264 5261 5259 5256 5253 5250 5247 5245 5243 5241 5238 5236 5234 5233 5231 5230 5229 5228 5226 5225 5224 5223 5222 5222 5222 5222 5222 5222 5221 5221 5220 5220 5220 5220 5219 5218 5217 5217 5216 5215
5386 5382 5379 5375 5372 5368 5364 5360 5357 5352 5349 5345 5341 5337 5334 5330 5327 5325 5322 5320 5317 5315 5312 5310 5308 5305 5303 5300 5298 5296 5294 5291 5289 5287 5284 5282 5279 5276 5273 5270 5267 5264 5261 5258 5255 5252 5249 5247 5244 5241 5239 5236 5233 5230 5228 5226 5224 5222 5220 5219 5218 5217 5216 5214 5213 5211 5211 5211 5212 5212 5212 5212 5212 5212 5212 5212 5212 5212 5212 5212 5211 5211 5211 5210 5210
5375 5371 5367 5364 5360 5356 5352 5348 5344 5339 5336 5332 5328 5325 5321 5318 5315 5312 5310 5307 5305 5303 5300 5298 5296 5294 5291 5289 5287 5284 5282 5280 5277 5275 5272 5270 5267 5265 5262 5259 5256 5253 5250 5247 5244 5241 5238 5235 5232 5230 5227 5223 5220 5218 5215 5213 5210 5208 5207 5206 5205 5204 5203 5201 5200 5199 5200 5201 5202 5202 5202 5203 5203 5203 5203 5203 5204 5205 5205 5205 5205 5205 5205 5205 5205
5364 5360 5356 5352 5348 5344 5339 5335 5330 5326 5322 5318 5315 5312 5309 5306 5303 5300 5298 5295 5293 5291 5288 5286 5284 5282 5280 5277 5275 5273 5270 5268 5265 5263 5260 5258 5255 5253 5250 5247 5245 5242 5239 5236 5233 5230 5227 5224 5221 5219 5215 5212 5208 5205 5203 5200 5198 5195 5194 5192 5191 5191 5190 5188 5187 5188 5188 5189 5191 5192 5193 5194 5194 5194 5194 5195 5196 5197 5198 5198 5198 5199 5199 5200 5200
5352 5348 5344 5340 5336 5331 5326 5322 5317 5313 5309 5305 5302 5299 5296 5293 5291 5288 5286 5284 5281 5279 5277 5275 5272 5270 5268 5266 5263 5261 5259 5256 5254 5251 5249 5246 5244 5241 5238 5236 5233 5230 5227 5224 5221 5218 5215 5212 5210 5207 5204 5201 5197 5194 5191 5188 5186 5183 5181 5179 5178 5177 5176 5175 5175 5176 5176 5178 5180 5181 5183 5184 5185 5186 5186 5187 5188 5189 5190 5191 5192 5193 5194 5194 5195
5341 5336 5332 5328 5323 5318 5314 5309 5305 5301 5297 5294 5291 5288 5285 5282 5279 5277 5275 5272 5270 5268 5266 5263 5261 5259 5257 5255 5252 5250 5248 5245 5243 5240 5238 5235 5232 5230 5227 5224 5221 5218 5215 5212 5209 5207 5204 5201 5198 5196 5193 5190 5186 5183 5180 5177 5174 5171 5168 5166 5165 5164 5163 5163 5163 5163 5164 5166 5168 5171 5173 5175 5176 5178 5179 5180 5181 5182 5184 5185 5186 5188 5189 5189 5189
5329 5325 5320 5315 5310 5306 5302 5298 5294 5290 5287 5284 5281 5278 5275 5272 5269 5267 5264 5262 5260 5257 5255 5253 5250 5248 5246 5244 5241 5239 5237 5234 5232 5229 5226 5224 5221 5219 5216 5213 5210 5207 5205 5202 5199 5196 5194 5191 5188 5185 5182 5179 5176 5172 5169 5165 5162 5159 5156 5154 5152 5151 5150 5150 5150 5151 5153 5155 5158 5161 5163 5166 5168 5170 5171 5173 5174 5176 5178 5179 5181 5183 5184 5184 5185
5317 5312 5308 5303 5298 5294 5291 5287 5284 5281 5277 5274 5271 5268 5265 5262 5260 5257 5254 5252 5249 5247 5245 5242 5240 5237 5235 5233 5230 5228 5226 5223 5221 5218 5216 5213 5211 5209 5206 5203 5200 5198 5195 5192 5190 5187 5184 5182 5179 5175 5172 5169 5166 5162 5158 5155 5151 5148 5144 5141 5139 5138 5137 5137 5138 5140 5142 5145 5149 5152 5155 5158 5160 5163 5165 5166 5168 5170 5172 5175 5177 5178 5179 5180 5180
5304 5300 5295 5291 5287 5284 5280 5277 5274 5271 5268 5265 5262 5259 5256 5253 5250 5247 5245 5242 5239 5237 5234 5232 5229 5227 5224 5222 5220 5218 5215 5213 5210 5208 5206 5203 5201 5199 5196 5194 5191 5189 5186 5184 5181 5179 5176 5173 5170 5167 5164 5160 5157 5153 5149 5145 5141 5137 5134 5130 5127 5126 5126 5126 5128 5130 5133 5136 5141 5144 5148 5151 5153 5156 5158 5161 5163 5166 5168 5170 5172 5174 5175 5175 5176